User: anonymous   Login
Location: Unspecified
(0.0000°N, 0.0000°E)
Time: 13:34:11
(UTC+00:00)
Language:

NOAA 15 - Orbit

View from above orbital plane
View from above orbital plane
View from above satellite
View from above satellite

Ground track
Ground track

The orbit data is extracted from the following two-line orbital elements,

1 25338U 98030A   18173.94560993 +.00000065 +00000-0 +46084-4 0  9993
2 25338 098.7687 190.3821 0009984 204.7217 155.3485 14.25860346045587
Epoch (UTC): 22 June 2018 22:41:40
Eccentricity: 0.0009984
inclination: 98.7687°
perigee height: 798 km
apogee height: 813 km
right ascension of ascending node: 190.3821°
argument of perigee: 204.7217°
revolutions per day: 14.25860346
mean anomaly at epoch: 155.3485°
orbit number at epoch: 4558

The dashed part of the orbit path shows where the satellite is in the earth's shadow,  

DLR